Location: Kershaw
(34.5481°N, 80.5823°W)
Time: 06:50:04
(UTC+00:00)

Tiros 1 despin weight - Pass Details

Date: 07 October 2022
Orbit: 590 x 637 km, 48.2° (Epoch: 28 November)

Event Time Altitude Azimuth Distance (km) Brightness Sun altitude
Rises 19:18:04 0° 244° (WSW) 2,812 ? 39.7°
Reaches altitude 10° 19:20:22 10° 249° (WSW) 1,917 ? 39.4°
Maximum altitude 19:24:41 54° 327° (NNW) 725 ? 38.7°
Drops below altitude 10° 19:29:04 10° 45° (NE) 1,948 ? 38.1°
Sets 19:31:26 0° 50° (NE) 2,862 ? 37.7°
